Date String (YYYY-MM-DD hh:mm:ss) UTC,Instrument flags,Ambient pressure (hPa),Sample flow (lpm),Bypass flow (lpm),Sample temperature (°C),Ambient temperature (°C),ASC tube jacket temperature (°C),LED temperature (°C),Box temperature (°C),Sample RH (%),Span deviation,Mass concentration (μg/m³),Mass concentration (μg/m³),Mass concentration (μg/m³)
DateTimeUTC,F1_M11,P_M11,Q1_M11,Q2_M11,T1_M11,T2_M11,T3_M11,T4_M11,T5_M11,U1_M11,ZSPAN_M11,X0_M11,X2_M11,X1_M11
2021-08-29 01:00:00,,0827.5,4.99,0.00,29.0,27.1,00.0,38.1,30.8,25.8,0002.0,0032.85,0019.50,0017.89
2021-08-29 01:01:00,,0827.5,5.00,0.00,29.0,27.5,00.0,38.1,30.9,25.8,0001.8,0033.17,0019.50,0017.88
2021-08-29 01:02:00,,0827.5,5.00,0.00,29.1,27.8,00.0,38.1,31.0,25.6,0001.9,0033.65,0019.51,0017.87
2021-08-29 01:03:00,,0827.5,5.00,0.00,29.2,28.1,00.0,38.1,31.1,25.4,0002.0,0033.62,0019.44,0017.88
2021-08-29 01:04:00,,0827.5,5.00,0.00,29.2,28.3,00.0,38.1,31.2,25.3,0002.1,0033.17,0019.40,0017.89
2021-08-29 01:05:00,,0827.5,4.99,0.00,29.3,28.5,00.0,38.2,31.2,25.0,0002.0,0032.88,0019.36,0017.87
2021-08-29 01:06:00,,0827.5,5.01,0.00,29.3,28.6,00.0,38.2,31.3,24.9,0002.1,0033.51,0019.37,0017.86
2021-08-29 01:07:00,,0827.5,5.01,0.00,29.3,27.5,00.0,38.2,31.0,24.8,0002.3,0033.65,0019.39,0017.83
2021-08-29 01:08:00,,0827.5,5.00,0.00,29.2,25.9,00.0,38.2,30.5,24.7,0002.3,0033.26,0019.43,0017.80
2021-08-29 01:09:00,,0827.5,5.01,0.00,29.1,25.6,00.0,38.2,30.4,24.8,0002.4,0032.85,0019.43,0017.77
2021-08-29 01:10:00,,0827.6,5.00,0.00,29.0,26.0,00.0,38.2,30.5,25.0,0002.4,0032.12,0019.34,0017.68
2021-08-29 01:11:00,,0827.7,5.01,0.00,29.0,26.5,00.0,38.1,30.6,25.0,0002.4,0030.03,0019.28,0017.60
2021-08-29 01:12:00,,0827.7,4.99,0.00,29.0,27.0,00.0,38.1,30.7,25.0,0002.6,0029.45,0019.19,0017.55
2021-08-29 01:13:00,,0827.7,4.99,0.00,29.0,27.4,00.0,38.1,30.9,25.0,0002.5,0029.38,0019.05,0017.50
2021-08-29 01:14:00,,0827.7,5.00,0.00,29.1,27.7,00.0,38.1,31.0,25.0,0002.4,0029.75,0019.03,0017.44
2021-08-29 01:15:00,,0827.7,5.00,0.00,29.1,28.0,00.0,38.1,31.0,24.9,0002.2,0030.65,0019.04,0017.40
2021-08-29 01:16:00,,0827.7,5.00,0.00,29.2,28.2,00.0,38.2,31.1,24.7,0002.1,0030.21,0019.00,0017.35
2021-08-29 01:17:00,,0827.7,5.00,0.00,29.3,28.4,00.0,38.2,31.2,24.7,0002.0,0029.08,0018.89,0017.28
2021-08-29 01:18:00,,0827.7,5.00,0.00,29.3,28.6,00.0,38.2,31.3,24.5,0001.9,0028.66,0018.80,0017.25
2021-08-29 01:19:00,,0827.7,5.00,0.00,29.4,28.6,00.0,38.2,31.3,24.4,0002.0,0028.47,0018.73,0017.21
2021-08-29 01:20:00,,0827.7,5.01,0.00,29.3,27.1,00.0,38.3,30.9,24.4,0001.9,0029.06,0018.67,0017.18
2021-08-29 01:21:00,,0827.7,5.00,0.00,29.1,25.6,00.0,38.2,30.5,24.6,0002.3,0029.67,0018.66,0017.22
2021-08-29 01:22:00,,0827.8,4.98,0.00,29.0,25.6,00.0,38.2,30.4,24.9,0002.3,0030.30,0018.69,0017.24
2021-08-29 01:23:00,,0827.7,5.01,0.00,29.0,26.0,00.0,38.2,30.5,24.9,0002.2,0030.28,0018.71,0017.21
2021-08-29 01:24:00,,0827.8,4.99,0.00,29.0,26.6,00.0,38.1,30.7,24.9,0002.2,0029.11,0018.69,0017.17
2021-08-29 01:25:00,,0827.8,5.00,0.00,29.0,27.0,00.0,38.1,30.8,24.8,0002.2,0028.87,0018.64,0017.12
2021-08-29 01:26:00,,0827.9,4.99,0.00,29.0,27.4,00.0,38.1,30.9,24.6,0002.3,0027.39,0018.51,0017.07
2021-08-29 01:27:00,,0827.9,5.00,0.00,29.1,27.7,00.0,38.1,31.0,24.6,0002.5,0028.14,0018.45,0017.04
2021-08-29 01:28:00,,0827.9,5.00,0.00,29.2,28.0,00.0,38.1,31.0,24.6,0002.3,0029.00,0018.48,0017.03
2021-08-29 01:29:00,,0827.9,4.99,0.00,29.2,28.2,00.0,38.2,31.1,24.5,0002.2,0029.90,0018.43,0016.95
2021-08-29 01:30:00,,0827.9,5.00,0.00,29.3,28.4,00.0,38.2,31.2,24.5,0002.3,0030.52,0018.34,0016.87
2021-08-29 01:31:00,,0827.9,5.00,0.00,29.3,28.6,00.0,38.2,31.3,24.4,0002.5,0029.89,0018.19,0016.79
2021-08-29 01:32:00,,0827.9,5.02,0.00,29.4,28.7,00.0,38.3,31.3,24.3,0002.4,0028.84,0018.05,0016.71
2021-08-29 01:33:00,,0827.8,4.99,0.00,29.4,27.9,00.0,38.3,31.1,24.2,0002.4,0028.40,0017.99,0016.61
2021-08-29 01:34:00,,0827.9,5.01,0.00,29.3,26.0,00.0,38.3,30.7,24.5,0002.3,0028.21,0017.94,0016.56
2021-08-29 01:35:00,,0827.9,4.99,0.00,29.1,25.5,00.0,38.2,30.5,24.6,0002.4,0027.97,0017.88,0016.52
2021-08-29 01:36:00,,0827.9,4.99,0.00,29.0,25.9,00.0,38.2,30.5,24.7,0002.4,0027.95,0017.84,0016.49
2021-08-29 01:37:00,,0827.8,5.01,0.00,29.0,26.4,00.0,38.2,30.7,24.7,0002.5,0028.95,0017.81,0016.44
2021-08-29 01:38:00,,0827.9,5.00,0.00,29.0,26.9,00.0,38.2,30.8,24.7,0002.6,0028.69,0017.73,0016.38
2021-08-29 01:39:00,,0827.8,5.00,0.00,29.1,27.3,00.0,38.1,30.9,24.7,0002.8,0028.21,0017.64,0016.34
2021-08-29 01:40:00,,0827.9,5.00,0.00,29.1,27.6,00.0,38.2,30.9,24.6,0003.0,0027.06,0017.67,0016.34
2021-08-29 01:41:00,,0827.9,5.00,0.00,29.1,27.9,00.0,38.2,31.0,24.5,0003.0,0026.05,0017.58,0016.26
2021-08-29 01:42:00,,0827.9,5.00,0.00,29.2,28.1,00.0,38.2,31.1,24.4,0002.8,0025.76,0017.50,0016.19
2021-08-29 01:43:00,,0828.0,5.00,0.00,29.3,28.3,00.0,38.2,31.2,24.4,0002.7,0025.77,0017.48,0016.13
2021-08-29 01:44:00,,0827.9,5.00,0.00,29.3,28.5,00.0,38.2,31.3,24.4,0002.7,0025.38,0017.39,0016.09
2021-08-29 01:45:00,,0828.0,5.00,0.00,29.4,28.7,00.0,38.3,31.3,24.2,0002.5,0025.09,0017.28,0016.04
2021-08-29 01:46:00,,0827.9,5.00,0.00,29.4,28.3,00.0,38.3,31.3,24.2,0002.6,0024.81,0017.25,0015.97
2021-08-29 01:47:00,,0827.9,5.00,0.00,29.3,26.6,00.0,38.3,30.8,24.2,0002.6,0024.15,0017.22,0015.94
2021-08-29 01:48:00,,0827.9,5.00,0.00,29.1,25.5,00.0,38.3,30.4,24.5,0002.5,0023.16,0017.16,0015.89
2021-08-29 01:49:00,,0828.0,4.99,0.00,29.1,25.7,00.0,38.3,30.5,24.6,0002.5,0023.77,0017.15,0015.84
2021-08-29 01:50:00,,0828.0,5.00,0.00,29.0,26.2,00.0,38.2,30.6,24.7,0002.4,0024.08,0017.11,0015.76
2021-08-29 01:51:00,,0827.9,5.00,0.00,29.0,26.7,00.0,38.2,30.7,24.7,0002.3,0024.72,0017.00,0015.70
2021-08-29 01:52:00,,0828.0,4.99,0.00,29.0,27.1,00.0,38.2,30.8,24.7,0002.3,0025.12,0017.04,0015.75
2021-08-29 01:53:00,,0828.1,5.01,0.00,29.1,27.5,00.0,38.2,30.9,24.7,0002.2,0025.61,0017.10,0015.78
2021-08-29 01:54:00,,0828.1,5.00,0.00,29.1,27.8,00.0,38.2,31.0,24.6,0002.3,0025.73,0017.14,0015.80
2021-08-29 01:55:00,,0828.1,4.99,0.00,29.2,28.0,00.0,38.2,31.1,24.5,0002.4,0026.41,0017.18,0015.81
2021-08-29 01:56:00,,0828.1,5.01,0.00,29.2,28.3,00.0,38.2,31.2,24.4,0002.6,0027.41,0017.14,0015.81
2021-08-29 01:57:00,,0828.1,5.00,0.00,29.3,28.4,00.0,38.2,31.2,24.5,0002.4,0029.04,0017.15,0015.85
2021-08-29 01:58:00,,0828.1,5.00,0.00,29.3,28.6,00.0,38.2,31.3,24.3,0002.4,0029.82,0017.18,0015.87
2021-08-29 01:59:00,,0828.1,4.99,0.00,29.4,28.7,00.0,38.3,31.3,24.3,0002.5,0031.35,0017.24,0015.92
